Date,TemperatureHighF,TemperatureAvgF,TemperatureLowF,DewpointHighF,DewpointAvgF,DewpointLowF,HumidityHigh,HumidityAvg,HumidityLow,PressureMaxIn,PressureMinIn,WindSpeedMaxMPH,WindSpeedAvgMPH,GustSpeedMaxMPH,PrecipitationSumIn
2013-1-1,24,12,-8,20,9,-12,89,86,81,30.41,30.09,9,1,9,0.00
2013-1-2,32,20,11,27,16,7,95,86,75,30.29,30.00,13,2,14,0.00
2013-1-3,20,11,2,16,7,-1,92,84,78,30.43,30.15,12,2,12,0.00
2013-1-4,29,21,11,20,15,8,91,78,66,30.21,30.13,7,1,7,0.00
2013-1-5,23,11,2,16,7,-1,92,84,72,30.25,29.99,14,2,15,0.00
2013-1-6,22,14,8,18,11,5,91,85,75,30.33,29.95,11,1,11,0.00
2013-1-7,38,29,22,28,23,18,89,80,66,30.03,29.93,9,1,9,0.00
2013-1-8,36,26,17,30,22,14,90,85,78,30.01,29.76,10,1,10,0.00
2013-1-9,36,31,27,30,25,21,85,77,65,30.38,30.01,16,3,18,0.00
2013-1-10,39,35,30,32,30,26,95,82,62,30.22,29.65,11,1,14,0.19
2013-1-11,36,33,19,35,32,17,97,95,90,29.65,29.39,14,1,15,0.02
2013-1-12,19,9,4,17,4,0,91,81,72,30.23,29.52,16,5,18,0.00
2013-1-13,10,5,1,5,0,-4,84,79,71,30.37,30.21,11,2,11,0.00
2013-1-14,11,5,-2,5,0,-5,87,81,70,30.54,30.37,5,0,5,0.00
2013-1-15,25,15,4,17,9,1,89,78,67,30.37,29.83,8,1,8,0.00
2013-1-16,37,23,2,34,18,-6,92,82,67,30.38,29.74,12,3,13,0.03
2013-1-17,24,12,-1,18,5,-9,81,74,64,30.51,30.29,9,1,9,0.00
2013-1-18,40,30,17,32,26,12,92,83,67,30.29,29.80,9,1,12,0.00
2013-1-19,39,22,1,32,17,-5,91,81,65,30.42,29.75,27,5,27,0.00
2013-1-20,10,3,-6,5,-3,-15,83,75,65,30.55,30.41,15,4,16,0.00
2013-1-21,1,-6,-11,-7,-12,-17,80,72,65,30.55,30.45,15,3,18,0.00
2013-1-22,7,-2,-11,2,-8,-16,83,75,63,30.53,30.34,5,0,5,0.00
2013-1-23,9,2,-10,5,-4,-16,88,77,66,30.77,30.28,19,2,19,0.00
2013-1-24,14,3,-10,8,-4,-16,75,71,66,30.80,30.21,13,1,15,0.00
2013-1-25,21,10,-2,16,3,-6,83,75,65,30.43,30.09,21,4,21,0.00
2013-1-26,22,10,-4,14,4,-7,84,77,68,30.44,30.09,8,0,9,0.00
2013-1-27,33,29,18,32,25,13,95,87,75,30.09,29.83,7,0,7,0.02
2013-1-28,37,33,32,35,32,31,97,95,92,29.90,29.68,5,0,5,0.00
2013-1-29,32,26,21,31,24,17,96,90,82,29.92,29.65,15,3,15,0.01
2013-1-30,21,10,-3,16,5,-8,84,81,78,30.00,29.87,17,5,17,0.00
2013-1-31,-3,-7,-11,-8,-13,-16,80,76,72,30.49,30.00,17,6,20,0.00
2013-2-1,10,-1,-14,7,-6,-19,86,78,68,30.49,30.15,6,0,8,0.00
2013-2-2,17,8,0,14,4,-4,89,84,75,30.31,30.05,14,1,14,0.01
2013-2-3,16,12,7,11,8,4,88,82,76,30.24,30.03,14,1,14,0.00
2013-2-4,21,11,0,18,7,-4,92,84,75,30.18,29.78,6,1,7,0.02
2013-2-5,31,20,10,30,16,5,96,86,77,30.17,29.75,13,2,13,0.00
2013-2-6,34,21,7,29,17,4,90,85,78,30.17,29.91,11,0,11,0.00
2013-2-7,27,24,19,23,20,16,93,87,80,30.38,30.09,10,1,10,0.00
2013-2-8,28,20,8,23,17,5,93,86,75,30.42,30.15,10,1,10,0.00
2013-2-9,33,30,23,31,27,21,93,90,87,30.15,29.85,13,1,13,0.04
2013-2-10,31,29,26,30,27,24,96,94,89,29.85,29.36,14,2,14,0.38
2013-2-11,26,22,17,24,19,14,94,89,82,30.14,29.58,21,5,21,0.00
2013-2-12,32,22,15,23,18,12,92,83,67,30.12,29.90,9,1,10,0.00
2013-2-13,38,29,18,33,26,16,95,87,67,29.90,29.63,14,1,14,0.01
2013-2-14,29,19,3,27,15,0,93,85,75,30.36,29.76,13,3,14,0.00
2013-2-15,16,8,-1,10,4,-4,88,84,71,30.48,30.36,9,1,9,0.00
2013-2-16,20,11,0,14,8,-4,90,86,77,30.39,30.13,7,0,7,0.00
2013-2-17,36,26,12,31,22,10,92,85,76,30.13,29.57,12,1,13,0.00
2013-2-18,35,17,-1,32,14,-5,92,85,76,30.12,29.57,21,6,22,0.00
2013-2-19,0,-4,-11,-4,-10,-16,83,78,72,30.60,30.12,18,5,20,0.00
2013-2-20,8,-4,-17,0,-9,-21,84,78,68,30.63,30.51,7,0,7,0.00
2013-2-21,19,11,-3,13,5,-6,87,79,73,30.53,30.19,8,1,8,0.00
2013-2-22,24,19,13,20,16,10,92,87,78,30.19,30.00,9,1,9,0.03
2013-2-23,24,13,1,16,9,-3,91,84,65,30.06,29.96,5,0,5,0.00
2013-2-24,24,10,-5,16,5,-9,92,83,69,30.22,30.06,5,0,6,0.00
2013-2-25,27,18,7,24,16,4,94,91,87,30.21,30.12,5,0,5,0.00
2013-2-26,28,22,16,24,20,14,94,92,87,30.15,30.04,9,1,9,0.00
2013-2-27,29,20,14,23,17,10,92,86,72,30.20,30.06,18,3,23,0.00
2013-2-28,27,23,16,23,20,14,92,88,84,30.34,30.20,8,1,8,0.00
2013-3-1,27,18,8,19,14,6,92,84,70,30.48,30.33,8,1,8,0.00
2013-3-2,26,16,0,20,11,-3,91,82,66,30.46,30.18,6,0,6,0.00
2013-3-3,34,25,17,27,21,14,91,83,73,30.19,29.93,13,1,13,0.01
2013-3-4,29,26,24,27,24,22,95,91,89,30.02,29.88,9,1,10,0.10
2013-3-5,30,24,17,26,22,14,95,90,81,30.44,29.99,16,2,16,0.02
2013-3-6,24,21,19,18,17,16,89,84,76,30.52,30.40,9,1,9,0.00
2013-3-7,28,22,18,21,18,15,90,84,75,30.42,30.25,11,1,13,0.00
2013-3-8,33,24,14,32,21,11,95,87,75,30.34,30.07,8,1,8,0.13
2013-3-9,35,33,28,35,32,26,97,96,91,30.07,29.72,12,1,12,0.74
2013-3-10,28,24,18,26,21,15,91,89,84,30.14,29.93,16,4,17,0.00
2013-3-11,27,18,7,23,13,3,87,81,64,30.08,29.92,10,3,11,0.00
2013-3-12,29,24,17,26,19,14,88,83,73,30.37,29.95,18,5,20,0.00
2013-3-13,29,20,8,25,15,5,90,81,65,30.50,30.22,11,1,11,0.00
2013-3-14,38,31,25,31,27,22,93,84,74,30.22,30.06,7,0,8,0.00
2013-3-15,34,31,26,32,28,24,96,92,88,30.09,29.86,8,1,8,0.00
2013-3-16,28,14,6,27,10,2,95,84,76,30.38,30.01,10,3,11,0.00
2013-3-17,30,17,3,28,12,0,94,80,69,30.39,29.73,13,1,13,0.06
2013-3-18,34,20,10,32,15,4,94,81,71,30.06,29.64,22,8,23,0.09
2013-3-19,19,11,4,9,4,-2,82,73,60,30.43,30.06,16,5,16,0.00
2013-3-20,19,11,3,9,3,-2,82,73,57,30.46,30.28,16,4,16,0.00
2013-3-21,21,10,-3,13,5,-6,87,78,66,30.28,30.16,9,1,9,0.00
2013-3-22,26,15,1,17,10,-3,89,79,65,30.22,30.16,6,1,6,0.00
2013-3-23,28,21,13,19,16,10,89,79,61,30.28,30.20,8,2,8,0.00
2013-3-24,32,23,15,28,19,12,90,86,78,30.25,30.13,12,2,12,0.00
2013-3-25,32,26,19,24,21,15,89,82,72,30.40,30.20,14,3,15,0.00
2013-3-26,29,20,12,22,16,9,92,83,71,30.44,30.35,7,2,7,0.00
2013-3-27,38,26,11,30,21,8,93,84,70,30.41,30.34,8,0,8,0.00
2013-3-28,42,35,27,35,30,23,92,83,73,30.37,30.25,10,1,10,0.00
2013-3-29,49,40,30,43,36,29,96,86,76,30.28,29.97,6,0,8,0.00
2013-3-30,44,38,32,41,35,31,97,90,79,30.00,29.92,11,2,12,0.00
2013-3-31,34,30,21,32,25,17,96,81,64,30.27,29.92,17,4,20,0.00
2013-4-1,31,24,17,21,17,13,86,76,61,30.41,30.27,11,2,11,0.00
2013-4-2,35,27,18,23,20,16,93,75,50,30.43,30.36,10,1,11,0.00
2013-4-3,57,38,23,41,30,20,91,73,52,30.43,30.01,11,1,13,0.00
2013-4-4,48,37,28,35,30,24,88,77,61,30.28,30.01,14,3,15,0.00
2013-4-5,38,32,24,33,28,22,91,84,73,30.30,29.79,13,1,14,0.00
2013-4-6,47,40,33,41,35,31,92,85,74,29.87,29.56,13,2,14,0.00
2013-4-7,46,38,32,42,34,30,97,89,75,29.97,29.74,10,1,10,0.14
2013-4-8,44,40,34,42,39,32,98,94,88,30.13,29.72,10,1,10,0.00
2013-4-9,34,30,25,31,25,21,91,80,65,30.27,30.07,15,3,20,0.14
2013-4-10,36,33,31,31,28,25,95,82,66,30.26,29.96,13,2,14,0.14
2013-4-11,34,31,28,32,30,27,96,93,87,29.97,29.75,12,3,12,0.41
2013-4-12,35,30,28,29,27,26,94,87,76,29.96,29.81,12,3,12,0.00
2013-4-13,35,31,27,28,26,25,93,84,73,29.99,29.93,11,2,11,0.00
2013-4-14,35,32,29,34,30,27,97,93,86,29.94,29.46,15,2,15,0.40
2013-4-15,40,35,32,32,30,27,90,81,70,30.09,29.45,18,6,18,0.00
2013-4-16,40,33,26,32,28,23,90,81,70,30.39,30.07,12,2,12,0.00
2013-4-17,39,35,32,33,31,28,96,87,78,30.40,30.06,12,1,12,0.11
2013-4-18,33,32,30,32,31,28,96,95,93,30.06,29.77,16,2,16,0.38
2013-4-19,35,30,24,28,25,21,93,82,72,30.13,29.75,16,2,17,0.00
2013-4-20,38,28,17,30,22,15,95,78,48,30.33,30.13,7,1,7,0.03
2013-4-21,45,38,31,40,35,30,96,89,78,30.30,30.04,11,2,11,0.16
2013-4-22,34,32,29,32,29,26,95,91,87,30.34,30.22,9,2,12,0.19
2013-4-23,38,30,20,29,24,17,91,80,61,30.34,30.15,10,3,12,0.00
2013-4-24,44,34,27,37,29,23,94,81,62,30.15,29.99,18,3,18,0.03
2013-4-25,54,39,26,41,30,22,88,72,51,30.26,29.96,5,2,10,0.00
2013-4-26,70,54,38,49,39,34,90,61,29,30.15,29.91,11,2,11,0.00
2013-4-27,76,59,36,45,38,33,90,52,24,30.15,29.81,11,1,13,0.00
2013-4-28,81,62,51,51,47,39,82,59,33,29.83,29.65,15,2,15,0.00
2013-4-29,76,58,38,53,39,32,81,53,24,29.87,29.42,7,1,8,0.00
2013-4-30,66,60,49,56,42,28,82,54,26,30.03,29.28,18,4,18,0.00
2013-5-1,48,40,35,34,27,22,74,61,52,30.61,30.02,16,3,16,0.00
2013-5-2,48,38,30,29,26,25,84,64,44,30.71,30.53,16,3,16,0.00
2013-5-3,50,38,25,29,25,22,86,61,37,30.54,30.23,15,2,15,0.00
2013-5-4,42,38,36,38,36,29,96,90,62,30.26,30.20,12,2,13,0.05
2013-5-5,52,44,38,45,41,38,98,90,77,30.26,30.16,7,1,7,0.02
2013-5-6,70,55,41,52,46,40,94,74,49,30.18,30.03,8,1,8,0.00
2013-5-7,79,63,42,52,45,39,92,57,28,30.08,29.91,7,0,7,0.00
2013-5-8,65,59,55,58,54,48,96,86,56,30.02,29.94,7,0,7,0.30
2013-5-9,60,55,48,55,51,40,97,89,74,30.16,29.99,12,2,14,0.13
2013-5-10,70,52,37,49,36,27,88,59,26,30.19,29.91,20,2,20,0.01
2013-5-11,54,46,38,36,27,19,75,50,26,30.27,30.06,21,4,22,0.00
2013-5-12,62,48,30,29,24,18,75,42,19,30.31,30.11,12,1,12,0.00
2013-5-13,87,66,46,54,40,25,53,39,23,30.11,29.62,13,2,13,0.00
2013-5-14,95,74,55,56,45,27,69,40,12,29.77,29.48,21,3,21,0.00
2013-5-15,82,65,50,54,47,42,76,55,27,29.93,29.77,10,1,11,0.00
2013-5-16,86,70,50,53,46,38,80,47,21,29.89,29.76,12,0,13,0.00
2013-5-17,73,64,59,63,54,42,92,72,42,29.88,29.82,13,1,13,0.00
2013-5-18,84,71,60,69,63,57,95,78,54,29.87,29.68,9,0,10,0.01
2013-5-19,77,68,62,68,64,61,98,87,69,29.69,29.50,12,1,13,0.60
2013-5-20,70,63,61,64,59,56,99,89,65,29.52,29.43,12,0,12,0.08
2013-5-21,61,55,49,58,54,48,97,96,88,29.75,29.45,8,1,9,0.43
2013-5-22,54,50,46,51,48,44,97,94,80,30.08,29.75,13,2,13,0.22
2013-5-23,64,53,42,48,42,36,95,70,36,30.33,30.08,9,1,9,0.00
2013-5-24,70,55,43,55,45,36,93,72,35,30.33,30.12,12,1,12,0.08
2013-5-25,60,56,53,54,51,50,90,85,75,30.17,30.09,13,1,13,0.00
2013-5-26,55,53,50,51,49,46,93,89,82,30.18,30.01,16,1,16,0.00
2013-5-27,62,57,52,57,54,51,97,90,82,30.04,29.80,9,1,10,0.00
2013-5-28,68,59,55,60,56,54,98,91,77,29.80,29.69,5,0,5,0.00
2013-5-29,80,64,54,72,62,53,99,92,71,29.79,29.50,11,1,13,1.10
2013-5-30,78,68,62,66,63,60,98,83,60,29.54,29.40,12,1,12,0.04
2013-5-31,67,62,57,62,56,52,95,79,66,29.51,29.39,18,1,18,0.04
2013-6-1,61,56,53,58,52,47,93,86,75,30.03,29.51,15,2,15,0.04
2013-6-2,67,57,46,49,45,39,91,66,41,30.14,30.01,8,1,9,0.00
2013-6-3,69,59,44,54,46,41,91,64,43,30.04,29.88,13,1,13,0.00
2013-6-4,65,59,54,61,56,47,96,88,61,30.00,29.89,8,1,9,0.17
2013-6-5,65,59,51,57,53,49,96,82,62,30.00,29.95,6,0,7,0.00
2013-6-6,61,56,52,54,52,49,93,84,72,30.06,30.00,7,0,8,0.00
2013-6-7,69,58,46,55,50,45,98,76,50,30.07,29.89,6,0,7,0.00
2013-6-8,65,59,55,58,54,50,93,83,69,29.90,29.82,9,0,9,0.12
2013-6-9,64,59,57,61,58,56,98,95,90,29.86,29.70,9,1,12,0.83
2013-6-10,75,64,55,65,59,54,99,86,61,29.90,29.78,6,0,6,0.00
2013-6-11,78,67,58,70,61,57,98,83,51,29.94,29.77,7,0,8,0.02
2013-6-12,68,62,58,65,59,55,97,88,75,30.03,29.75,10,1,10,1.18
2013-6-13,77,66,52,62,56,50,95,73,47,30.14,30.00,6,0,6,0.00
2013-6-14,82,71,63,68,63,58,87,75,59,30.04,29.76,14,1,15,0.00
2013-6-15,80,71,63,65,59,50,97,70,38,29.91,29.79,8,0,8,0.00
2013-6-16,84,71,56,62,55,50,84,59,34,29.93,29.83,9,1,9,0.00
2013-6-17,79,70,59,62,57,53,83,64,48,29.98,29.88,8,1,9,0.00
2013-6-18,76,66,56,64,59,55,98,78,52,30.09,29.96,10,0,11,0.31
2013-6-19,86,74,61,67,61,56,92,68,37,29.99,29.83,6,0,6,0.00
2013-6-20,86,78,70,72,68,63,85,72,58,29.91,29.70,11,1,11,0.00
2013-6-21,81,70,63,72,65,62,97,87,68,29.97,29.66,14,1,14,1.28
2013-6-22,79,71,64,72,67,62,98,88,69,29.94,29.72,7,0,9,0.21
2013-6-23,79,72,64,70,65,61,98,82,58,29.85,29.61,7,1,8,0.79
2013-6-24,77,69,61,72,66,60,97,91,80,29.87,29.71,5,0,7,0.11
2013-6-25,87,76,66,78,71,65,98,87,70,29.76,29.61,9,0,9,0.00
2013-6-26,84,76,67,73,68,61,99,79,49,29.82,29.60,8,1,8,0.10
2013-6-27,84,75,66,68,63,55,95,67,41,29.87,29.78,13,1,13,0.10
2013-6-28,80,73,66,64,60,57,79,65,48,29.88,29.83,15,2,16,0.00
2013-6-29,80,70,62,66,59,54,90,69,45,29.99,29.82,11,1,12,0.00
2013-6-30,80,68,57,61,55,48,93,65,35,30.14,29.99,6,0,6,0.00
2013-7-1,84,72,59,65,58,52,95,65,34,30.20,30.12,2,0,5,0.00
2013-7-2,84,71,60,68,61,54,95,72,38,30.14,30.02,6,0,8,0.00
2013-7-3,84,72,60,64,58,50,89,64,34,30.04,29.89,7,0,7,0.00
2013-7-4,88,76,64,67,61,55,83,61,40,29.90,29.74,9,0,9,0.00
2013-7-5,88,78,70,71,65,59,75,64,47,29.78,29.70,7,0,8,0.00
2013-7-6,82,75,68,75,70,65,97,86,72,29.79,29.72,5,0,5,0.97
2013-7-7,88,78,70,79,72,64,93,81,55,29.90,29.75,9,0,10,0.00
2013-7-8,86,75,63,75,67,60,93,77,55,29.97,29.87,4,0,5,0.00
2013-7-9,82,74,65,73,68,62,97,83,68,29.99,29.70,12,2,12,0.88
2013-7-10,78,68,58,66,61,57,95,78,53,30.10,29.99,7,0,7,0.00
2013-7-11,84,72,60,70,64,58,94,76,56,30.08,29.87,10,0,10,0.00
2013-7-12,89,79,68,75,68,61,81,71,60,29.89,29.75,14,1,14,0.00
2013-7-13,82,76,70,74,70,67,90,80,72,29.96,29.79,8,1,8,0.00
2013-7-14,75,69,66,69,67,65,99,94,76,30.15,29.94,5,0,5,1.18
2013-7-15,85,75,67,75,70,66,99,86,60,30.19,30.08,5,0,6,0.00
2013-7-16,86,78,70,76,71,68,96,80,56,30.17,30.09,6,0,7,0.00
2013-7-17,88,79,70,78,72,67,90,79,61,30.19,30.04,6,0,6,0.00
2013-7-18,89,81,72,77,73,69,90,78,61,30.05,29.71,8,1,9,0.00
2013-7-19,80,76,69,72,67,63,90,75,58,29.90,29.72,8,1,10,0.00
2013-7-20,78,70,62,68,65,61,97,84,64,29.95,29.87,8,0,8,0.00
2013-7-21,84,73,63,73,67,60,96,81,60,29.90,29.71,5,0,5,0.03
2013-7-22,79,72,61,72,66,58,98,82,66,29.89,29.64,11,1,12,0.10
2013-7-23,76,65,56,64,59,54,97,81,55,30.02,29.89,6,0,7,0.00
2013-7-24,78,69,60,66,61,57,96,78,56,30.06,29.94,5,0,6,0.00
2013-7-25,76,69,64,69,65,59,98,88,69,29.98,29.90,7,0,7,0.41
2013-7-26,68,62,56,60,55,51,92,78,58,30.13,29.95,13,2,14,0.00
2013-7-27,68,59,51,56,50,47,92,73,50,30.16,29.99,11,1,12,0.00
2013-7-28,73,60,48,57,52,46,94,74,50,30.07,30.01,8,0,8,0.00
2013-7-29,76,62,51,62,57,50,97,84,51,30.10,30.04,6,0,7,0.15
2013-7-30,74,67,61,68,64,60,98,91,77,30.08,30.00,3,0,4,0.00
2013-7-31,77,67,58,70,61,55,98,84,56,30.12,30.01,6,0,6,0.02
2013-8-1,78,67,55,68,59,53,94,78,53,30.06,29.88,5,0,5,0.00
2013-8-2,74,65,56,64,58,54,96,80,53,30.07,29.88,6,0,8,0.00
2013-8-3,76,64,52,64,55,50,96,76,49,30.21,30.07,7,0,7,0.00
2013-8-4,74,63,52,62,56,50,94,79,56,30.24,29.94,6,0,6,0.00
2013-8-5,78,69,63,71,65,61,98,88,66,30.01,29.80,7,0,7,1.14
2013-8-6,82,69,60,71,64,59,98,86,63,29.85,29.68,13,1,14,0.02
2013-8-7,73,65,59,62,58,54,97,80,54,30.01,29.83,6,0,7,0.00
2013-8-8,71,64,58,65,60,55,97,89,76,30.04,29.97,5,0,5,0.31
2013-8-9,72,63,54,61,57,53,98,81,55,30.14,30.02,8,0,8,0.00
2013-8-10,74,64,53,66,58,52,97,84,61,30.20,30.05,4,0,4,0.00
2013-8-11,78,68,62,69,64,61,98,86,62,30.07,29.99,4,0,5,0.00
2013-8-12,76,66,56,63,59,54,95,80,54,30.09,30.03,8,0,8,0.00
2013-8-13,74,63,51,62,55,49,96,77,46,30.21,30.09,6,0,7,0.00
2013-8-14,75,63,51,62,56,50,96,79,51,30.20,30.08,5,0,5,0.00
2013-8-15,76,66,56,64,59,55,97,81,55,30.13,30.06,4,0,5,0.00
2013-8-16,76,65,54,64,59,53,98,83,59,30.18,30.12,7,0,7,0.00
2013-8-17,80,68,56,69,62,55,95,81,63,30.15,30.04,10,0,10,0.00
2013-8-18,78,69,59,68,62,56,91,80,64,30.07,29.93,11,0,11,0.00
2013-8-19,86,75,66,76,69,62,92,83,67,29.97,29.81,7,0,8,0.00
2013-8-20,88,78,68,79,73,67,97,87,71,29.84,29.77,6,0,6,0.00
2013-8-21,87,77,68,78,72,63,97,86,59,29.98,29.75,7,0,7,0.00
2013-8-22,81,71,61,64,59,54,90,69,42,30.13,29.98,6,0,7,0.00
2013-8-23,85,71,56,74,66,55,97,83,65,30.11,29.94,9,1,9,0.00
2013-8-24,88,79,72,77,73,69,93,82,63,29.95,29.79,10,1,11,0.00
2013-8-25,91,82,76,80,75,71,89,80,67,29.91,29.84,8,0,8,0.00
2013-8-26,92,82,74,80,76,72,93,81,63,29.90,29.74,9,0,9,0.00
2013-8-27,91,81,74,83,76,71,95,86,72,29.87,29.73,5,0,5,0.00
2013-8-28,88,77,68,79,73,67,98,88,66,29.99,29.87,8,0,8,0.00
2013-8-29,84,78,75,75,74,73,96,88,76,29.92,29.78,3,0,3,0.00
2013-8-30,84,75,67,74,69,65,97,83,61,29.93,29.83,6,0,6,0.00
2013-8-31,87,71,62,75,67,61,98,88,59,29.88,29.68,9,0,12,1.35
2013-9-1,68,62,55,67,59,53,98,90,77,30.04,29.81,11,1,12,0.00
2013-9-2,70,59,49,60,53,48,98,84,60,30.14,30.03,8,0,8,0.00
2013-9-3,78,64,52,69,60,50,97,87,67,30.07,29.97,5,0,5,0.00
2013-9-4,84,71,60,75,67,59,98,88,70,30.11,29.99,5,0,5,0.00
2013-9-5,85,72,61,73,66,58,91,82,60,30.15,30.02,6,0,7,0.00
2013-9-6,89,76,66,77,69,64,96,81,58,30.03,29.79,6,0,7,0.00
2013-9-7,89,77,67,77,71,66,99,84,57,29.96,29.83,6,0,7,0.00
2013-9-8,73,68,63,70,65,61,94,89,82,30.00,29.83,7,0,8,0.00
2013-9-9,86,74,66,78,70,63,98,87,61,29.83,29.59,7,1,7,0.06
2013-9-10,80,71,66,68,65,61,98,82,54,29.98,29.78,7,1,7,0.04
2013-9-11,83,70,59,66,58,50,95,71,36,30.12,29.98,8,0,9,0.00
2013-9-12,74,61,49,58,52,48,95,76,51,30.26,30.12,10,0,10,0.00
2013-9-13,72,58,45,55,50,44,98,76,47,30.27,30.04,5,0,5,0.00
2013-9-14,59,56,50,58,53,46,96,91,78,30.05,29.81,5,0,5,0.44
2013-9-15,68,58,48,60,55,46,98,90,67,30.33,29.86,7,0,7,0.36
2013-9-16,66,54,44,52,48,43,98,80,46,30.41,30.20,8,0,8,0.00
2013-9-17,64,57,50,59,55,49,96,91,82,30.20,29.87,11,1,11,0.00
2013-9-18,84,71,59,74,68,58,99,88,71,29.87,29.57,10,0,11,0.00
2013-9-19,73,68,57,70,63,52,98,85,58,29.88,29.56,9,1,9,0.71
2013-9-20,59,54,47,54,50,45,96,88,68,29.99,29.86,8,2,8,0.04
2013-9-21,65,51,40,52,46,39,98,83,53,30.06,29.89,4,0,5,0.01
2013-9-22,81,63,50,63,53,47,90,72,42,29.91,29.70,10,1,11,0.00
2013-9-23,76,65,57,60,55,52,85,72,48,29.85,29.73,12,1,12,0.00
2013-9-24,71,60,55,60,55,51,96,82,64,29.94,29.85,8,0,8,0.00
2013-9-25,75,62,50,60,54,49,98,79,48,29.93,29.76,12,0,12,0.00
2013-9-26,83,69,59,65,60,55,88,73,51,29.81,29.68,7,1,16,0.00
2013-9-27,77,68,59,69,64,55,95,86,71,29.77,29.66,15,0,15,0.10
2013-9-28,61,55,50,55,50,44,97,84,57,29.93,29.62,11,2,11,0.18
2013-9-29,76,59,45,55,48,42,92,69,40,29.94,29.66,6,0,8,0.00
2013-9-30,80,67,56,59,53,47,77,61,40,29.67,29.49,7,0,8,0.00
2013-10-1,72,63,51,55,46,37,79,56,29,29.99,29.49,8,2,10,0.00
2013-10-2,77,56,43,56,46,40,96,75,34,30.01,29.77,11,1,12,0.09
2013-10-3,55,54,51,55,53,50,98,97,95,29.99,29.86,7,1,7,0.00
2013-10-4,56,54,52,55,53,51,98,96,92,30.00,29.76,13,2,13,0.00
2013-10-5,58,49,42,57,45,39,97,86,65,29.81,29.70,9,1,10,0.00
2013-10-6,54,48,44,50,45,41,97,90,66,29.94,29.74,13,1,13,0.16
2013-10-7,67,52,42,51,44,39,96,77,40,30.01,29.89,5,0,5,0.00
2013-10-8,75,61,50,54,49,45,87,66,39,29.91,29.69,14,1,14,0.00
2013-10-9,76,63,54,58,52,48,85,68,46,29.97,29.82,7,0,8,0.00
2013-10-10,81,66,55,60,53,50,84,66,41,29.95,29.72,11,1,14,0.00
2013-10-11,68,61,52,61,54,45,93,80,64,29.74,29.45,15,2,15,0.25
2013-10-12,58,51,42,45,41,35,86,68,44,30.25,29.68,16,4,18,0.01
2013-10-13,59,46,34,42,36,31,93,71,41,30.46,30.25,4,0,4,0.00
2013-10-14,49,46,44,47,42,37,94,84,69,30.38,29.81,12,1,14,0.85
2013-10-15,50,47,43,48,45,42,96,95,92,29.99,29.67,17,2,17,0.53
2013-10-16,56,44,34,43,38,32,96,82,52,30.05,29.90,10,1,10,0.00
2013-10-17,49,41,38,45,39,35,95,91,86,30.01,29.84,16,1,17,0.12
2013-10-18,52,40,31,40,34,30,96,82,49,30.07,29.89,10,1,10,0.01
2013-10-19,44,38,33,40,33,27,95,81,56,29.89,29.76,13,2,13,0.02
2013-10-20,45,39,35,42,35,30,93,88,80,30.02,29.63,12,2,12,0.07
2013-10-21,42,34,27,31,27,24,90,73,54,30.06,30.00,10,2,11,0.00
2013-10-22,40,33,26,33,27,24,93,81,63,30.14,30.02,8,1,9,0.00
2013-10-23,40,35,32,30,28,24,89,74,56,30.23,30.09,11,1,14,0.00
2013-10-24,47,36,28,36,30,25,94,81,62,30.40,30.23,13,1,13,0.00
2013-10-25,62,43,26,46,35,23,91,75,53,30.39,29.85,13,2,15,0.00
2013-10-26,48,39,31,38,30,27,86,70,55,30.21,29.94,13,2,15,0.00
2013-10-27,56,41,30,39,32,26,86,71,50,30.20,29.85,11,1,11,0.00
2013-10-28,42,34,27,29,26,22,87,71,49,30.49,30.21,11,1,12,0.00
2013-10-29,37,35,33,34,30,25,91,83,72,30.46,30.13,9,1,10,0.00
2013-10-30,42,39,36,42,38,34,97,96,91,30.13,29.76,5,0,5,0.12
2013-10-31,41,39,36,39,37,35,97,93,87,29.76,29.49,7,2,7,0.00
2013-11-1,49,42,34,41,38,32,94,87,74,29.96,29.52,12,3,12,0.00
2013-11-2,52,41,31,41,35,30,95,82,57,30.12,29.96,7,1,7,0.00
2013-11-3,57,46,35,39,35,32,90,67,42,30.06,29.75,17,2,23,0.00
2013-11-4,49,42,32,40,35,28,89,77,56,30.19,29.74,12,2,12,0.02
2013-11-5,38,33,29,30,27,24,90,80,58,30.31,30.16,3,0,6,0.00
2013-11-6,44,33,25,36,27,22,92,80,55,30.24,30.15,9,1,9,0.02
2013-11-7,48,33,25,30,26,23,94,79,47,30.34,30.22,13,1,13,0.00
2013-11-8,46,37,27,42,31,24,92,81,60,30.22,29.63,17,2,17,0.00
2013-11-9,46,41,36,41,33,26,88,72,53,30.35,29.73,20,6,20,0.00
2013-11-10,37,33,24,32,27,20,89,80,72,30.40,30.15,11,1,11,0.00
2013-11-11,32,19,11,27,11,6,84,72,58,30.88,30.26,16,3,16,0.00
2013-11-12,33,20,7,17,10,3,89,70,40,30.91,30.45,11,1,11,0.00
2013-11-13,56,38,24,38,29,16,84,71,49,30.45,29.90,10,1,10,0.00
2013-11-14,54,42,32,40,34,29,90,77,59,29.91,29.81,13,1,13,0.00
2013-11-15,59,40,25,41,34,23,95,78,49,29.85,29.55,9,1,13,0.00
2013-11-16,48,42,36,46,40,34,95,92,80,29.55,29.24,7,0,8,0.00
2013-11-17,46,38,32,41,35,26,95,86,77,29.98,29.36,17,4,17,0.00
2013-11-18,37,30,25,26,23,20,86,76,62,30.27,29.98,15,2,15,0.00
2013-11-19,54,40,24,37,30,21,88,70,48,30.25,29.77,18,2,18,0.00
2013-11-20,52,43,29,36,32,25,87,67,53,30.11,29.76,12,1,13,0.00
2013-11-21,29,20,14,24,14,8,88,77,71,30.71,30.10,18,4,19,0.00
2013-11-22,37,17,6,15,7,2,85,68,25,30.85,30.56,19,2,19,0.00
2013-11-23,15,8,1,5,2,-3,85,76,59,31.03,30.77,11,2,11,0.00
2013-11-24,41,25,8,29,15,2,77,66,44,30.78,29.99,12,2,12,0.00
2013-11-25,39,34,28,30,26,20,84,71,57,30.22,29.96,17,4,17,0.00
2013-11-26,28,20,10,20,10,5,79,68,53,30.52,30.22,16,4,16,0.00
2013-11-27,24,15,4,13,8,1,90,75,59,30.53,30.07,11,0,11,0.00
2013-11-28,25,18,10,16,10,5,84,72,58,30.58,30.15,15,2,15,0.00
2013-11-29,36,22,7,22,15,3,87,74,56,30.58,30.12,13,1,13,0.00
2013-11-30,36,28,22,27,22,18,90,80,66,30.28,30.07,11,1,11,0.00
2013-12-1,32,27,22,25,22,19,88,82,72,30.28,29.90,5,0,5,0.00
2013-12-2,37,33,30,35,30,25,95,90,81,29.91,29.55,6,0,7,0.00
2013-12-3,34,32,28,33,31,27,97,96,95,29.83,29.62,7,1,8,0.00
2013-12-4,32,24,8,31,22,5,97,93,87,29.91,29.61,14,2,19,0.00
2013-12-5,8,3,-4,5,-2,-9,87,80,76,30.49,29.91,17,1,17,0.00
2013-12-6,2,-4,-9,-4,-10,-14,81,78,74,30.82,30.49,10,-7,10,0.00
2013-12-7,3,-7,-15,-5,-12,-20,85,78,66,30.87,30.66,6,0,6,0.00
2013-12-8,14,5,-4,9,2,-8,87,84,78,30.66,30.17,6,-3,7,0.00
2013-12-9,13,-1,-8,10,-5,-12,89,81,75,30.28,29.87,10,-1,12,0.00
2013-12-10,18,8,-1,15,3,-6,90,80,73,30.49,29.86,20,3,20,0.00
2013-12-11,7,-3,-12,3,-8,-16,84,78,68,30.71,30.35,10,-2,10,0.00
2013-12-12,22,14,7,15,10,2,87,82,71,30.40,30.21,5,0,5,0.00
2013-12-13,15,12,8,10,8,4,87,83,78,30.40,30.18,9,1,10,0.00
2013-12-14,12,7,0,7,3,-6,87,82,76,30.40,30.24,10,2,10,0.00
2013-12-15,6,2,-2,2,-3,-7,84,80,75,30.30,30.18,8,1,9,0.00
2013-12-16,34,19,6,29,14,2,89,84,77,30.18,30.01,12,2,12,0.00
2013-12-17,34,26,16,29,19,12,88,77,65,30.19,30.03,21,5,21,0.00
2013-12-18,41,27,16,31,22,11,88,79,66,30.06,29.70,13,1,13,0.00
2013-12-19,16,10,3,11,5,-1,88,81,76,30.19,29.96,14,2,14,0.00
2013-12-20,12,9,3,7,5,0,88,84,79,30.18,29.97,7,1,7,0.00
2013-12-21,15,10,3,12,6,0,90,86,82,30.17,29.96,8,1,10,0.00
2013-12-22,4,0,-7,0,-5,-12,85,81,77,30.51,30.14,14,4,14,0.00
2013-12-23,-4,-10,-15,-12,-16,-20,79,73,67,30.71,30.51,12,-1,13,0.00
2013-12-24,16,3,-17,14,-2,-21,90,81,68,30.63,30.21,9,0,9,0.00
2013-12-25,31,22,16,29,19,14,95,88,79,30.26,30.12,19,2,19,0.03
2013-12-26,33,28,21,27,24,18,92,85,73,30.22,30.09,5,0,5,0.03
2013-12-27,41,33,23,34,29,20,93,85,73,30.21,29.97,10,2,10,0.00
2013-12-28,44,23,-2,35,20,-7,94,86,67,30.31,29.71,21,3,23,0.00
2013-12-29,-2,-9,-13,-7,-15,-19,81,74,61,30.57,30.31,19,3,24,0.00
2013-12-30,9,0,-10,3,-5,-15,87,80,72,30.41,30.25,6,0,6,0.00
2013-12-31,2,-7,-13,-5,-12,-18,84,79,71,30.56,30.37,4,0,7,0.00
2014-1-1,1,-4,-7,-6,-10,-13,81,73,65,30.60,30.52,7,-5,7,0.00
2014-1-2,-4,-11,-19,-9,-16,-23,84,79,70,30.69,30.47,4,-4,4,0.00